Location: Aboncourt
(47.7710°N, 5.9826°E)
Time: 03:20:24
(UTC+00:00)

Cosmos 1408 - Pass Details

Date: 05 July 2020
Orbit: 470 x 494 km, 82.6° (Epoch: 03 August)

Event Time Altitude Azimuth Distance (km) Brightness Sun altitude
Exits shadow 21:28:57 16° 105° (ESE) 1,328 4.4 -13.6°
Maximum altitude 21:29:48 17° 87° (E) 1,276 4.4 -13.7°
Drops below altitude 10° 21:32:09 10° 46° (NE) 1,644 5.4 -13.9°
Sets 21:34:47 0° 25° (NNE) 2,526 6.7 -14.1°
